Regional Weather Roundup
Issued by NWS

Home | Current Version | Previous Version | Text Only | Print | Product List | Glossary On
Versions: 1 2 3 4 5 6 7 8 9 10 11 12 13 14 15 16 17 18 19 20 21 22 23 24 25 26 27 28 29 30 31 32 33 34 35 36 37 38 39 40 41 42 43 44 45 46 47 48 49 50
000
ASUS43 KFSD 290110
RWRSD

WEATHER ROUNDUP FOR SOUTH DAKOTA
NATIONAL WEATHER SERVICE SIOUX FALLS SD
800 PM CDT SUN AUG 28 2016

NOTE: "FAIR" INDICATES FEW OR NO CLOUDS BELOW 12,000 FEET WITH NO
SIGNIFICANT WEATHER AND/OR OBSTRUCTIONS TO VISIBILITY.


SDZ001>005-009-010-012>017-290200-
NORTHWEST AND NORTH CENTRAL SOUTH DAKOTA

CITY           SKY/WX    TMP DP  RH WIND       PRES   REMARKS
BUFFALO          N/A     83  51  33 N10       29.94R
FAITH            N/A     87  47  24 SE9       29.97R
MOBRIDGE       CLEAR     85  57  38 E3        29.90R
$$

SDZ012>016-024>037-041>051-057-063-072>074-290200-
SOUTHWEST AND SOUTH CENTRAL SOUTH DAKOTA

CITY           SKY/WX    TMP DP  RH WIND       PRES   REMARKS
RAPID CTY ARPT CLEAR     79  53  40 NE10      29.99R
PIERRE         CLEAR     86  62  44 E3        29.90R
CUSTER         CLEAR     79  30  16 W6        30.17R
ELLSWORTH AFB  CLEAR     85  51  30 NE9       30.00R
PHILIP         CLEAR     90  56  31 CALM      29.93R
PINE RIDGE     PTCLDY    83  52  34 S10       30.01R
WINNER         FAIR      86  65  49 S10       29.97R
$$

SDZ004>011-016>023-039-040-290200-
NORTHEAST SOUTH DAKOTA

CITY           SKY/WX    TMP DP  RH WIND       PRES   REMARKS
ABERDEEN       CLOUDY    83  69  62 S10       29.93R
WATERTOWN      CLEAR     81  70  69 S12       30.01R
BROOKINGS        N/A    N/A N/A N/A MISG        N/A
SISSETON         N/A     81  73  76 S8        29.96R
$$

SDZ017-020-022-023-036>040-048>070-290200-
SOUTHEAST SOUTH DAKOTA

CITY           SKY/WX    TMP DP  RH WIND       PRES   REMARKS
SIOUX FALLS    PTCLDY    83  70  64 SE13      30.04R
HURON          CLEAR     85  67  54 S15G24    29.94R
CHAMBERLAIN    PTCLDY    88  65  45 S10       29.95R
MITCHELL       CLEAR     85  66  53 S15       29.98R
YANKTON        CLEAR     82  70  65 SE9       30.02R
$$

ABBREVIATIONS USED IN REMARKS
   TC - TEMPERATURE IN CELSIUS
  WCI - WIND CHILL INDEX
   HX - HEAT INDEX
  VSB - VISIBILITY





USA.gov is the U.S. government's official web portal to all federal, state and local government web resources and services.